• In Austria
  • List of Countries
  • For 7 days
  • Water Temperature
  • Satellite Maps
  • Weather Map
  • News
  • Weather Widgets
  • user-avatar
    Login

    Hourly Weather San Luis

    Today, 18 July, Wednesday

    Time Temperature Precipitation Wind Pressure Humidity
    00:00 +7°C° 0 mm 4 mps 699 mmHg 84%
    01:00 +6°C° 0 mm 4 mps 699 mmHg 85%
    02:00 +6°C° 0 mm 5 mps 699 mmHg 85%
    03:00 +6°C° 0.1 mm 4 mps 699 mmHg 86%
    04:00 +6°C° 0.1 mm 4 mps 698 mmHg 86%
    05:00 +5°C° 0.1 mm 4 mps 698 mmHg 86%
    06:00 +5°C° 0.1 mm 4 mps 698 mmHg 86%
    07:00 +5°C° 0.1 mm 4 mps 699 mmHg 86%
    08:00 +5°C° 0 mm 3 mps 699 mmHg 83%
    09:00 +7°C° 0 mm 3 mps 699 mmHg 80%
    10:00 +7°C° 0 mm 3 mps 699 mmHg 77%
    11:00 +7°C° 0 mm 4 mps 699 mmHg 75%
    12:00 +7°C° 0 mm 4 mps 699 mmHg 73%
    13:00 +7°C° 0 mm 5 mps 698 mmHg 72%
    14:00 +7°C° 0 mm 6 mps 698 mmHg 71%
    15:00 +7°C° 0 mm 6 mps 698 mmHg 73%
    16:00 +5°C° 0 mm 6 mps 698 mmHg 76%
    17:00 +4°C° 0 mm 6 mps 698 mmHg 79%
    18:00 +4°C° 0 mm 6 mps 698 mmHg 80%
    19:00 +3°C° 0 mm 6 mps 699 mmHg 81%
    20:00 +3°C° 0 mm 6 mps 699 mmHg 82%
    21:00 +3°C° 0 mm 6 mps 699 mmHg 82%
    22:00 +3°C° 0 mm 6 mps 700 mmHg 82%
    23:00 +3°C° 0 mm 6 mps 700 mmHg 83%

    Tomorrow, 19 July, Thursday

    Time Temperature Precipitation Wind Pressure Humidity
    00:00 +3°C° 0 mm 6 mps 700 mmHg 82%
    01:00 +3°C° 0 mm 5 mps 700 mmHg 82%
    02:00 +3°C° 0 mm 5 mps 700 mmHg 81%
    03:00 +2°C° 0 mm 5 mps 700 mmHg 81%
    04:00 +2°C° 0 mm 5 mps 699 mmHg 81%
    05:00 +2°C° 0 mm 5 mps 699 mmHg 80%
    06:00 +2°C° 0 mm 5 mps 699 mmHg 81%
    07:00 +1°C° 0 mm 5 mps 700 mmHg 81%
    08:00 +1°C° 0 mm 4 mps 700 mmHg 81%
    09:00 +2°C° 0 mm 5 mps 700 mmHg 76%
    10:00 +3°C° 0 mm 6 mps 701 mmHg 70%
    11:00 +4°C° 0 mm 7 mps 701 mmHg 65%
    12:00 +5°C° 0 mm 7 mps 701 mmHg 60%
    13:00 +6°C° 0 mm 7 mps 701 mmHg 56%
    14:00 +6°C° 0 mm 8 mps 700 mmHg 51%
    15:00 +6°C° 0 mm 8 mps 700 mmHg 52%
    16:00 +6°C° 0 mm 8 mps 700 mmHg 52%
    17:00 +6°C° 0 mm 9 mps 700 mmHg 53%
    18:00 +5°C° 0 mm 8 mps 701 mmHg 58%
    19:00 +4°C° 0 mm 8 mps 701 mmHg 64%
    20:00 +3°C° 0 mm 7 mps 702 mmHg 70%
    21:00 +2°C° 0 mm 7 mps 702 mmHg 72%
    22:00 +2°C° 0 mm 7 mps 703 mmHg 74%
    23:00 +2°C° 0 mm 7 mps 703 mmHg 76%

    Day after tomorrow, 20 July, Friday

    Time Temperature Precipitation Wind Pressure Humidity
    00:00 +2°C° 0 mm 7 mps 703 mmHg 77%
    01:00 0°C° 0 mm 7 mps 703 mmHg 78%
    02:00 0°C° 0 mm 7 mps 703 mmHg 79%
    03:00 +1°C° 0 mm 6 mps 703 mmHg 80%
    04:00 +1°C° 0 mm 6 mps 703 mmHg 80%
    05:00 -1°C° 0 mm 6 mps 703 mmHg 81%
    06:00 0°C° 0 mm 5 mps 704 mmHg 83%
    07:00 -1°C° 0 mm 4 mps 704 mmHg 85%
    08:00 -1°C° 0 mm 4 mps 705 mmHg 87%
    09:00 +1°C° 0 mm 4 mps 705 mmHg 75%
    10:00 +2°C° 0 mm 5 mps 706 mmHg 64%
    11:00 +4°C° 0 mm 6 mps 706 mmHg 52%
    12:00 +6°C° 0 mm 5 mps 706 mmHg 47%
    13:00 +7°C° 0 mm 5 mps 705 mmHg 42%
    14:00 +8°C° 0 mm 5 mps 705 mmHg 36%
    15:00 +8°C° 0 mm 4 mps 704 mmHg 35%
    16:00 +9°C° 0 mm 3 mps 703 mmHg 34%
    17:00 +9°C° 0 mm 3 mps 703 mmHg 34%
    18:00 +8°C° 0 mm 3 mps 703 mmHg 36%
    19:00 +5°C° 0 mm 3 mps 702 mmHg 38%
    20:00 +4°C° 0 mm 3 mps 702 mmHg 41%
    21:00 +4°C° 0 mm 3 mps 702 mmHg 38%
    22:00 +4°C° 0 mm 3 mps 702 mmHg 35%
    23:00 +4°C° 0 mm 3 mps 702 mmHg 31%

    21 July, Saturday

    Time Temperature Precipitation Wind Pressure Humidity
    00:00 +4°C° 0 mm 3 mps 702 mmHg 30%
    01:00 +4°C° 0 mm 4 mps 701 mmHg 29%
    02:00 +4°C° 0 mm 4 mps 701 mmHg 28%
    03:00 +4°C° 0 mm 4 mps 700 mmHg 27%
    04:00 +4°C° 0 mm 4 mps 700 mmHg 26%
    05:00 +4°C° 0 mm 4 mps 699 mmHg 25%
    06:00 +5°C° 0 mm 5 mps 699 mmHg 24%
    07:00 +5°C° 0 mm 5 mps 699 mmHg 23%
    08:00 +6°C° 0 mm 5 mps 699 mmHg 22%
    09:00 +8°C° 0 mm 6 mps 699 mmHg 18%
    10:00 +11°C° 0 mm 7 mps 699 mmHg 15%
    11:00 +15°C° 0 mm 8 mps 699 mmHg 12%
    12:00 +16°C° 0 mm 9 mps 698 mmHg 12%
    13:00 +17°C° 0 mm 10 mps 697 mmHg 12%
    14:00 +18°C° 0 mm 11 mps 695 mmHg 11%
    15:00 +17°C° 0 mm 11 mps 695 mmHg 13%
    16:00 +16°C° 0 mm 10 mps 694 mmHg 15%
    17:00 +15°C° 0 mm 9 mps 693 mmHg 18%
    18:00 +13°C° 0 mm 9 mps 693 mmHg 19%
    19:00 +12°C° 0 mm 9 mps 693 mmHg 21%
    20:00 +11°C° 0 mm 9 mps 692 mmHg 23%
    21:00 +11°C° 0 mm 9 mps 692 mmHg 23%
    22:00 +10°C° 0 mm 9 mps 692 mmHg 24%
    23:00 +10°C° 0 mm 9 mps 692 mmHg 25%

    22 July, Sunday

    Time Temperature Precipitation Wind Pressure Humidity
    00:00 +10°C° 0 mm 9 mps 692 mmHg 27%
    01:00 +9°C° 0 mm 8 mps 692 mmHg 29%
    02:00 +9°C° 0 mm 7 mps 692 mmHg 32%
    03:00 +8°C° 0 mm 6 mps 693 mmHg 35%
    04:00 +7°C° 0 mm 4 mps 693 mmHg 39%
    05:00 +7°C° 0 mm 3 mps 693 mmHg 43%
    06:00 +7°C° 0 mm 2 mps 694 mmHg 44%
    07:00 +6°C° 0 mm 2 mps 695 mmHg 45%
    08:00 +6°C° 0 mm 2 mps 696 mmHg 46%
    09:00 +8°C° 0 mm 2 mps 697 mmHg 40%
    10:00 +10°C° 0 mm 3 mps 698 mmHg 34%
    11:00 +12°C° 0 mm 4 mps 699 mmHg 29%
    12:00 +13°C° 0 mm 5 mps 699 mmHg 28%
    13:00 +14°C° 0 mm 7 mps 699 mmHg 28%
    14:00 +13°C° 0 mm 8 mps 699 mmHg 27%
    15:00 +12°C° 0 mm 9 mps 699 mmHg 30%
    16:00 +11°C° 0 mm 10 mps 699 mmHg 32%
    17:00 +9°C° 0 mm 10 mps 700 mmHg 35%
    18:00 +8°C° 0 mm 10 mps 701 mmHg 37%
    19:00 +6°C° 0 mm 10 mps 701 mmHg 39%
    20:00 +5°C° 0 mm 10 mps 702 mmHg 41%
    21:00 +3°C° 0 mm 9 mps 703 mmHg 41%
    22:00 +4°C° 0 mm 8 mps 704 mmHg 42%
    23:00 +2°C° 0 mm 8 mps 705 mmHg 42%

    23 July, Monday

    Time Temperature Precipitation Wind Pressure Humidity
    00:00 +3°C° 0 mm 7 mps 705 mmHg 42%
    01:00 +3°C° 0 mm 7 mps 706 mmHg 42%
    02:00 +2°C° 0 mm 6 mps 706 mmHg 43%
    03:00 +2°C° 0 mm 6 mps 707 mmHg 44%
    04:00 +1°C° 0 mm 5 mps 707 mmHg 45%
    05:00 +1°C° 0 mm 5 mps 707 mmHg 46%
    06:00 0°C° 0 mm 4 mps 708 mmHg 46%
    07:00 0°C° 0 mm 4 mps 708 mmHg 46%
    08:00 0°C° 0 mm 4 mps 709 mmHg 47%
    09:00 +1°C° 0 mm 4 mps 709 mmHg 40%
    10:00 +4°C° 0 mm 4 mps 710 mmHg 34%
    11:00 +6°C° 0 mm 5 mps 711 mmHg 27%
    12:00 +6°C° 0 mm 4 mps 710 mmHg 25%
    13:00 +7°C° 0 mm 4 mps 710 mmHg 23%
    14:00 +8°C° 0 mm 4 mps 709 mmHg 20%
    15:00 +8°C° 0 mm 4 mps 709 mmHg 20%
    16:00 +7°C° 0 mm 4 mps 709 mmHg 21%
    17:00 +7°C° 0 mm 4 mps 709 mmHg 21%
    18:00 +6°C° 0 mm 4 mps 709 mmHg 24%
    19:00 +4°C° 0 mm 4 mps 709 mmHg 27%
    20:00 +3°C° 0 mm 3 mps 709 mmHg 29%
    21:00 +3°C° 0 mm 3 mps 710 mmHg 30%
    22:00 +2°C° 0 mm 3 mps 710 mmHg 31%
    23:00 +2°C° 0 mm 3 mps 710 mmHg 33%
    Show more